Regional Weather Roundup
Issued by NWS Cleveland, OH

Home | Current Version | Previous Version | Text Only | Print | Product List | Glossary Off
Versions: 1 2 3 4 5 6 7 8 9 10 11 12 13 14 15 16 17 18 19 20 21 22 23 24 25 26 27 28 29 30 31 32 33 34 35 36 37 38 39 40 41 42 43 44 45 46 47 48 49 50

000
ASUS41 KCLE 281210
RWRCLE
OHIO REGIONAL WEATHER ROUNDUP
NATIONAL WEATHER SERVICE CLEVELAND, OH
700 AM EST TUE FEB 28 2017

NOTE: "FAIR" INDICATES FEW OR NO CLOUDS BELOW 12,000 FEET WITH NO
SIGNIFICANT WEATHER AND/OR OBSTRUCTIONS TO VISIBILITY.

OHZ001>008-015>018-024>027-034-035-043-044-281300-
   NORTHWEST OHIO

CITY           SKY/WX    TMP DP  RH WIND       PRES   REMARKS
DEFIANCE       LGT RAIN  42  39  89 SE5       30.06F
FINDLAY        CLOUDY    43  37  79 S10       30.09S
TOLEDO EXPRESS LGT RAIN  40  40 100 SE5       30.07F
TOLEDO EXEC    CLOUDY    42  40  92 SE8       30.07F
LIMA           CLOUDY    44  40  85 SE10      30.06F
$$

OHZ009>014-019>023-028>033-038-089-281300-
   NORTHEAST OHIO

CITY           SKY/WX    TMP DP  RH WIND       PRES   REMARKS
CLE-HOPKINS    CLOUDY    43  36  76 S13       30.18F
CLE-LAKEFRONT  CLOUDY    43  36  76 SE13      30.13F
CUY CO. ARPT   MOCLDY    43  34  70 S12       30.18
LORAIN-ELYRIA  CLOUDY    40  35  83 S9        30.14F
ASHTABULA      CLOUDY    39  37  92 SE6       30.20R
AKRON-CANTON   CLOUDY    40  35  83 SE10      30.18R
WOOSTER        CLOUDY    36  34  92 SE8       30.16S FOG
MANSFIELD      MOCLDY    40  38  93 SE8       30.13F
YOUNGSTOWN     MOCLDY    40  36  86 SE8       30.19R
$$

OHZ042-051>053-060>062-070>072-077>081-281300-
  SOUTHWEST OHIO

CITY           SKY/WX    TMP DP  RH WIND       PRES   REMARKS
CINC-COVINGTON LGT RAIN  46  45  96 S8        30.09F
CINC-LUNKEN    LGT RAIN  44  43  96 CALM      30.11F
HAMILTON       LGT RAIN  45  44  97 E7        30.09F FOG
DAYTON         LGT RAIN  43  40  89 S9        30.11R
WRIGHT-PAT AFB LGT RAIN  44  42  92 S7        30.12R
DAYTON GENERAL LGT RAIN  46  42  86 S9        30.11R
WILMINGTON     LGT RAIN  45  40  82 S12       30.12S
$$

OHZ036-037-039>041-045>050-054>059-063>069-073>076-082>088-281300-
  CENTRAL AND SOUTHEAST OHIO

CITY           SKY/WX    TMP DP  RH WIND       PRES   REMARKS
COLUMBUS       CLOUDY    46  38  73 S7        30.16S
OSU AIRPORT    CLOUDY    43  39  86 SE6       30.14F
BOLTON FIELD   CLOUDY    41  38  91 E3        30.14F
RICKENBACK AFB CLOUDY    40  38  95 E5        30.13F
NEWARK         CLOUDY    37  35  92 CALM      30.16S
MARION         CLOUDY    42  37  82 SE10      30.12F
LANCASTER      CLOUDY    43  38  82 SE8       30.17R
ZANESVILLE     CLOUDY    35  34  96 CALM      30.18R
NEW PHILLY     NOT AVBL
$$




USA.gov is the U.S. government's official web portal to all federal, state and local government web resources and services.